Wind_Speed
28 26 25 24 24 23 22 22 21 21 20 19 18 17 16 15 14 13 13 14 14 15 15 15 16 16 16 16 16 16 16 16 15 15 15 14 14 14 14 14 14 14 14 15 15 15 15 16 16 16 16 16 16 16 16 16 16 15 15 15 15 15 15 15 15 16 16 16 17 17 18 18 19 19 19 20 20 20 21 21 22 22 22 23 23 23
27 26 25 24 23 23 23 22 21 20 19 18 16 15 14 13 12 12 13 13 14 15 15 16 16 17 17 17 17 17 17 17 17 16 16 16 16 15 15 15 15 15 15 16 16 16 16 17 17 17 17 17 17 17 17 17 16 16 16 16 16 16 17 17 17 17 18 18 18 19 19 20 20 20 21 21 21 22 22 23 23 23 24 24 24 24
27 26 25 24 23 23 22 21 20 19 18 16 15 13 12 12 12 12 13 14 14 15 16 17 17 17 18 18 18 18 18 18 18 18 18 17 17 17 17 17 17 17 17 17 17 17 17 18 18 18 18 18 18 18 18 18 18 18 18 18 18 18 19 19 19 19 20 20 20 21 21 22 22 22 22 23 23 23 23 24 24 24 25 25 25 25
27 26 25 24 23 22 21 20 19 17 16 15 13 12 12 12 12 13 13 14 15 16 17 17 18 18 18 18 18 18 18 18 18 18 18 18 18 19 19 19 19 19 19 19 19 19 19 19 19 19 19 19 19 19 20 20 20 20 20 20 20 20 20 21 21 21 22 22 22 23 23 23 24 24 24 24 24 24 24 24 25 25 25 26 26 26
26 26 24 23 22 21 20 18 17 16 14 13 12 12 12 12 13 14 15 16 17 17 18 18 18 18 18 18 18 18 18 18 18 18 18 19 19 19 19 20 20 20 20 21 21 21 21 21 21 21 21 21 21 21 21 21 22 22 22 22 22 22 22 23 23 23 23 24 24 24 25 25 25 25 25 25 25 25 25 25 26 26 26 27 27 27
26 25 23 22 21 19 18 17 15 14 13 12 12 12 13 13 14 15 16 17 18 18 18 18 18 18 18 18 18 18 18 18 18 18 18 18 18 19 19 19 19 20 20 21 21 22 22 22 23 23 23 23 23 23 23 23 24 24 24 24 24 24 24 25 25 25 25 26 26 26 26 26 26 26 26 26 26 26 26 27 27 27 27 27 28 28
24 23 22 20 19 17 16 15 14 13 13 12 13 13 14 15 16 17 17 18 18 18 18 18 18 18 18 17 17 17 17 17 17 17 17 17 18 18 18 18 19 19 19 20 20 21 21 22 22 23 23 24 24 24 25 25 25 26 26 26 27 27 27 27 27 27 27 27 27 27 27 28 28 28 28 28 28 28 28 28 28 27 27 27 27 27
22 21 20 19 17 16 15 14 13 13 13 13 14 15 16 17 17 18 18 18 18 18 18 18 17 17 17 17 17 17 17 17 17 17 18 18 18 18 18 18 18 19 19 19 20 20 20 21 22 22 23 23 24 24 25 26 26 27 27 27 28 28 28 28 28 28 28 28 28 28 28 28 28 28 28 29 29 29 28 28 28 27 27 26 26 26
20 19 18 16 15 15 14 14 14 14 14 15 16 16 17 18 18 18 18 18 18 18 18 17 17 17 17 17 17 17 17 18 18 18 18 19 19 19 19 19 19 19 20 20 20 20 21 21 21 22 22 23 24 24 25 25 26 26 27 27 27 27 28 28 28 28 28 28 28 28 28 28 28 28 28 28 28 28 28 27 27 26 25 24 24 23
17 17 16 15 15 14 14 14 15 15 16 16 17 17 18 18 18 18 18 18 18 18 18 17 17 17 17 17 18 18 18 18 19 19 19 20 20 20 20 20 20 20 21 21 21 21 21 22 22 22 22 23 23 24 25 25 26 26 26 26 26 26 27 27 27 27 27 27 27 27 27 27 26 26 26 26 26 26 25 25 25 24 23 22 21 20
15 15 15 15 15 15 15 16 16 16 17 17 18 18 18 18 18 18 18 17 17 17 17 17 17 17 17 18 18 18 19 19 19 20 20 20 21 21 21 21 21 21 22 22 22 22 22 22 22 22 23 23 24 24 25 26 26 26 26 26 26 26 26 26 26 26 26 26 26 26 26 25 25 24 24 24 23 23 23 22 22 21 20 19 19 18
14 14 15 15 15 16 16 16 17 17 17 18 18 18 18 18 18 18 17 17 16 17 17 17 18 18 18 18 18 18 19 19 19 20 20 21 21 21 21 21 22 22 22 23 23 23 23 23 23 23 23 24 25 25 26 26 26 26 26 26 26 26 26 26 26 26 26 26 26 25 25 24 23 23 22 21 21 20 20 20 19 19 18 18 17 17
14 15 15 16 16 16 17 17 17 17 17 18 18 18 17 17 17 17 17 17 17 17 17 17 18 18 19 19 19 19 19 19 20 20 20 21 21 21 22 22 22 22 23 23 23 23 23 23 23 24 24 25 26 26 27 27 27 27 26 26 26 26 26 26 26 26 26 26 25 24 24 23 22 21 20 19 18 18 18 17 17 17 17 17 17 17
15 16 16 16 16 17 17 17 18 18 17 17 17 17 17 17 17 17 17 17 17 18 18 18 18 18 19 19 19 20 20 20 20 20 21 21 22 22 22 22 22 23 23 24 24 24 24 24 24 24 25 26 26 27 27 27 27 27 27 27 27 27 27 27 27 26 26 25 25 24 23 21 20 19 18 17 17 16 16 16 17 17 17 17 18 18
16 16 16 16 17 17 17 17 17 17 17 17 17 17 17 17 17 18 18 18 18 18 18 18 18 19 19 20 20 20 20 20 20 20 21 21 22 22 23 23 23 23 24 24 24 24 24 24 25 25 26 26 27 27 27 27 27 27 27 27 27 27 27 27 27 26 26 25 24 23 21 20 19 18 17 16 16 16 16 17 17 17 18 18 19 19
16 16 16 16 16 17 17 17 17 17 17 17 17 17 17 17 18 18 18 18 18 19 19 19 19 19 20 21 21 21 21 21 20 21 21 22 22 23 24 23 23 24 24 24 24 25 25 25 25 26 26 27 27 27 28 27 27 27 27 27 27 27 27 27 26 26 25 25 23 22 20 19 18 17 16 16 16 16 17 17 18 18 19 19 20 20
16 16 16 16 16 17 17 17 17 17 17 17 17 18 18 18 18 18 19 19 19 19 19 20 20 20 20 21 22 22 22 21 21 21 21 22 23 24 24 24 24 24 24 25 25 25 25 25 26 26 27 27 28 28 28 28 27 27 27 27 27 27 27 27 26 26 25 24 22 21 19 18 17 17 17 17 17 18 18 19 19 20 20 20 21 21
16 16 16 17 17 17 17 17 17 17 18 18 18 18 18 19 19 19 19 19 19 20 20 20 20 21 21 21 22 22 22 22 21 21 22 22 23 24 25 25 24 24 24 25 25 25 25 25 26 26 27 27 28 28 28 28 28 27 27 27 27 27 27 26 26 25 24 23 22 20 19 18 18 17 18 18 18 19 19 20 20 21 21 21 21 21
16 17 17 17 17 17 17 18 18 18 18 18 18 19 19 19 19 19 19 20 20 20 20 20 21 21 21 21 21 22 22 22 21 21 22 22 23 24 25 25 25 25 25 25 25 25 25 25 26 26 27 27 28 28 28 28 28 28 27 27 27 27 27 26 26 25 24 22 21 20 19 19 18 19 19 19 20 20 21 21 21 21 22 22 22 22
17 17 17 18 18 18 18 18 19 19 19 19 19 19 19 19 20 20 20 20 20 20 20 21 21 21 21 21 21 22 22 22 22 21 22 22 23 25 25 25 25 25 25 25 26 25 25 25 26 26 27 28 28 28 28 28 28 28 28 27 27 27 26 26 25 24 23 22 21 20 20 20 20 20 20 21 21 22 22 22 22 22 22 22 22 23
17 18 18 18 19 19 19 19 19 19 19 19 19 19 19 20 20 20 20 20 20 20 21 21 21 21 22 21 21 21 21 21 21 21 22 22 24 25 25 25 25 25 25 26 26 26 26 26 26 26 27 28 28 28 29 28 28 28 28 27 27 26 26 25 24 24 23 22 21 21 21 21 21 21 22 22 22 22 23 23 23 23 23 23 23 24
18 18 19 19 19 19 19 19 20 20 20 20 19 19 20 20 20 20 20 20 21 21 21 21 22 22 22 22 21 21 22 22 22 22 22 22 23 24 25 25 25 25 26 26 26 26 26 26 26 27 27 28 28 29 29 29 28 28 27 27 26 26 25 24 24 23 23 22 22 22 22 22 22 23 23 23 23 23 23 24 24 24 24 24 24 25
19 19 19 19 20 20 20 20 20 20 20 20 20 20 20 20 20 20 20 21 21 21 21 21 22 22 22 22 22 22 22 22 22 22 22 22 23 24 25 25 26 26 26 26 26 26 26 26 27 27 28 28 29 29 29 29 28 28 27 26 26 25 24 24 24 23 23 23 23 23 23 23 24 24 24 24 24 24 24 25 25 25 25 25 26 26
19 19 20 20 20 20 20 20 20 20 20 20 20 20 20 20 20 20 20 21 21 21 21 22 22 22 22 22 22 22 22 22 22 22 22 22 23 24 25 25 25 26 26 26 26 26 26 26 27 27 28 28 29 29 29 28 28 27 27 26 25 24 24 24 23 23 24 24 24 24 24 24 25 25 25 25 25 25 25 26 26 26 26 27 27 27
20 20 20 20 20 20 20 20 20 20 20 19 19 19 20 20 20 20 20 21 21 21 21 21 22 22 23 23 23 23 23 23 23 23 22 22 23 24 25 25 25 26 26 26 27 26 26 26 27 27 28 28 29 29 29 28 28 27 26 26 25 24 24 24 24 24 24 24 25 25 25 25 26 26 26 26 26 26 27 27 27 27 27 28 28 28
20 20 20 20 20 20 20 20 20 19 19 19 19 20 20 20 20 21 21 21 21 21 21 21 22 23 23 23 23 24 24 24 23 23 23 23 23 24 25 25 25 26 26 26 27 27 26 27 27 27 28 28 28 28 28 28 28 27 26 25 24 24 24 24 24 24 25 25 26 26 26 26 27 27 27 27 27 27 28 28 28 28 29 29 29 29
20 20 20 20 20 20 20 20 19 19 19 19 19 19 20 20 20 21 21 21 21 21 22 22 22 23 24 24 24 25 25 25 24 24 24 23 23 24 25 25 25 26 26 26 27 27 27 27 27 27 28 28 28 28 28 28 27 26 26 25 24 24 24 24 24 25 25 26 26 27 27 27 27 28 28 28 28 28 29 29 29 29 30 30 30 29
20 20 20 20 20 20 20 19 19 19 19 19 19 19 20 20 20 21 21 21 22 22 22 22 22 23 23 24 25 25 26 25 25 25 25 24 24 24 25 25 25 25 26 26 27 27 27 27 27 28 28 28 28 28 27 27 27 26 25 25 24 24 24 24 25 25 26 26 27 27 27 28 28 28 28 29 29 29 29 30 30 30 30 30 30 30
20 20 20 20 20 20 19 19 19 19 19 19 19 19 19 19 20 20 21 21 21 21 22 22 22 23 23 24 25 26 26 26 26 26 25 25 24 25 25 25 25 25 26 26 26 27 27 28 28 28 28 28 28 28 27 27 26 25 25 25 24 24 25 25 25 26 26 27 27 27 27 28 28 28 29 29 29 30 30 30 30 31 31 31 31 30
20 20 19 19 19 19 19 19 19 19 19 18 18 18 19 19 19 20 20 21 21 21 21 22 22 23 23 24 24 25 26 26 26 26 26 25 24 25 25 25 25 26 26 26 26 26 27 28 28 28 28 28 28 28 27 26 26 25 25 24 24 24 25 25 25 26 26 27 27 27 27 28 28 28 29 29 30 30 30 30 31 31 31 31 31 31
19 19 19 19 19 19 19 19 19 19 19 19 18 18 19 19 19 19 20 20 21 21 22 22 23 23 24 24 24 24 25 26 27 27 26 25 25 25 25 25 25 26 26 25 25 25 26 27 28 29 29 28 28 28 27 26 26 25 25 24 24 25 25 25 25 26 26 26 27 27 27 28 28 29 29 29 30 30 30 30 30 31 31 31 31 30
19 19 19 19 19 19 19 19 19 19 19 19 19 19 19 19 19 19 20 20 21 21 22 22 23 23 24 24 24 24 25 25 26 26 26 25 25 25 25 25 25 25 26 25 25 24 24 25 27 28 28 28 28 28 27 26 26 25 25 24 24 25 25 25 26 26 26 27 27 27 28 28 29 29 29 29 30 30 30 30 30 30 30 30 30 30
19 18 19 19 19 19 19 19 19 19 19 19 19 19 19 19 19 20 20 21 21 22 22 23 23 24 24 24 25 25 25 25 25 26 25 25 25 25 25 25 25 25 25 25 25 25 24 24 25 26 27 27 27 27 27 26 26 25 25 25 25 25 26 26 26 27 27 27 28 28 29 29 29 29 30 30 30 30 30 30 30 30 31 31 31 31
18 18 18 18 19 19 19 19 19 19 19 19 19 19 19 20 20 20 21 21 22 22 23 23 24 24 24 25 25 25 25 25 25 25 25 25 25 25 25 25 25 25 25 25 25 25 24 24 24 24 25 26 26 27 26 26 26 26 25 25 25 26 26 27 27 28 28 28 29 29 29 29 30 30 30 30 30 30 30 30 30 31 31 31 31 31
18 18 18 18 19 19 19 19 19 19 19 19 19 19 20 20 20 21 21 22 22 23 23 24 24 24 24 24 25 25 25 25 25 25 25 25 25 24 25 25 25 25 24 24 24 24 24 24 24 24 24 24 25 25 26 26 26 26 26 26 26 27 27 28 28 28 29 29 29 29 29 30 30 30 30 30 30 30 30 30 30 31 31 31 31 31
19 19 19 19 19 19 19 19 19 19 19 19 20 20 20 20 21 21 22 22 23 23 24 24 24 25 25 25 25 25 25 25 25 25 25 25 25 24 24 24 25 25 24 24 24 24 23 23 23 23 23 23 23 24 24 25 25 25 26 26 27 27 28 28 29 29 29 29 30 30 30 30 30 30 30 30 30 30 30 30 30 31 31 31 31 31
19 19 19 19 19 19 19 19 19 19 19 19 20 20 20 21 21 22 22 23 23 24 24 24 25 25 25 26 25 25 25 25 25 25 25 25 25 24 24 24 25 25 24 24 23 23 23 23 23 23 23 22 22 22 23 24 24 24 25 26 27 27 28 29 29 30 30 30 30 30 30 30 30 30 30 30 30 30 30 30 30 31 31 31 31 31
20 20 20 20 20 20 19 19 19 19 19 19 20 20 21 21 22 23 23 23 24 24 24 25 25 25 26 26 26 26 26 26 25 25 25 25 25 24 24 24 24 24 24 24 23 23 23 22 22 22 22 22 22 22 22 23 23 24 25 26 27 28 28 29 29 30 30 30 30 30 30 30 30 30 30 30 30 30 30 30 30 30 31 31 31 31
20 21 21 20 20 20 20 20 20 20 20 20 20 21 21 22 22 23 23 24 24 24 25 25 25 25 26 26 26 26 26 26 26 25 25 25 25 24 24 24 24 24 24 24 24 23 23 22 22 22 22 22 22 22 22 23 23 24 25 26 27 28 28 29 29 29 30 30 30 30 31 31 30 30 30 30 30 30 30 30 30 30 30 30 30 30
21 21 21 21 21 20 20 20 20 20 20 20 21 21 22 22 23 23 24 24 24 25 25 25 26 26 26 26 26 26 26 26 26 26 25 25 25 25 24 24 24 24 24 24 24 23 23 23 23 22 22 22 22 22 22 23 24 24 25 26 27 27 28 29 29 29 30 30 30 30 30 30 30 30 30 29 29 29 29 29 29 29 30 30 30 30
21 21 21 21 21 21 20 20 20 20 21 21 21 22 22 23 23 24 24 24 25 25 25 26 26 26 27 27 27 27 27 26 26 26 25 25 25 25 25 24 24 24 24 24 24 24 23 23 23 23 23 23 23 22 22 23 24 24 25 26 26 27 28 29 29 30 30 30 30 30 30 30 30 29 29 29 29 29 29 29 29 29 29 29 29 29
21 21 21 21 21 21 21 21 21 21 21 22 22 22 23 23 24 24 24 25 25 25 26 26 26 26 27 27 27 27 27 27 26 26 25 25 25 25 25 25 24 24 24 24 24 24 24 24 23 23 24 24 24 23 23 23 24 25 25 26 27 27 28 29 29 30 30 30 30 30 30 30 29 29 29 28 28 28 28 28 28 28 28 28 28 28
21 21 21 21 21 21 21 22 22 22 22 22 23 23 24 24 25 25 25 25 25 26 26 26 26 27 27 27 27 27 27 27 26 26 25 25 25 25 25 25 24 24 24 24 24 24 24 24 24 24 24 25 24 24 24 24 24 25 26 27 27 28 28 29 29 30 30 30 30 30 30 30 29 29 28 28 27 27 27 27 27 27 27 28 28 28
22 22 22 22 22 22 22 22 22 23 23 23 24 24 25 25 25 26 26 26 26 26 26 27 27 27 27 27 27 27 27 27 27 26 26 25 25 25 24 24 24 24 24 24 24 24 24 24 24 25 25 25 25 25 25 25 25 26 26 27 28 28 29 29 29 30 30 30 30 31 30 30 29 29 28 27 27 27 26 26 26 27 27 27 27 27
22 22 22 22 22 23 23 23 23 24 24 24 25 25 25 26 26 26 26 26 27 27 27 27 27 27 27 27 27 27 27 27 27 26 26 25 25 25 24 24 24 24 24 24 24 24 24 24 25 25 25 26 25 25 25 25 26 26 27 27 28 29 29 29 30 30 30 30 30 30 30 30 30 29 28 28 27 27 26 26 26 26 26 27 27 27
22 23 23 23 23 23 24 24 25 25 25 25 26 26 26 26 27 27 27 27 27 27 27 27 27 27 27 27 27 27 27 27 27 27 26 26 25 25 24 24 24 24 24 24 25 25 25 25 25 25 26 26 26 26 26 26 27 27 27 28 28 28 29 29 29 29 30 30 30 30 30 30 30 29 28 28 27 27 26 26 26 26 26 27 27 27
23 23 24 24 24 24 25 25 26 26 26 26 27 27 27 27 27 27 28 28 28 28 28 28 28 27 27 27 27 27 27 27 27 27 27 27 26 25 25 25 24 24 24 25 25 25 25 25 25 26 26 26 26 26 26 27 27 27 27 28 28 28 28 28 29 29 29 29 29 30 30 30 30 29 29 28 28 27 27 27 26 26 26 27 27 27
24 24 25 25 25 26 26 26 27 27 27 27 27 28 28 28 28 28 28 28 28 28 28 28 28 28 27 27 27 27 27 27 27 27 27 27 27 26 26 25 25 25 25 25 25 25 25 25 25 26 26 26 26 27 27 27 28 28 28 28 27 28 28 28 28 29 29 29 29 29 30 30 30 30 29 29 28 28 27 27 27 27 27 27 27 27
25 25 26 26 26 27 27 27 27 27 28 28 28 28 28 29 28 28 28 28 29 29 28 28 28 28 27 27 27 27 27 27 27 27 27 27 27 27 27 26 26 26 26 26 26 26 26 26 26 26 26 26 27 27 27 27 28 28 28 28 27 27 28 28 28 28 29 29 29 29 29 29 29 30 30 29 29 28 27 27 27 27 27 27 27 28
26 26 27 27 27 27 28 28 28 28 28 28 29 29 29 29 29 29 29 29 29 29 29 28 28 28 27 27 27 27 27 26 26 26 27 27 27 27 27 27 27 27 27 27 27 27 27 27 26 26 26 26 27 27 28 28 28 28 28 28 28 28 28 28 28 28 28 29 29 29 29 29 29 29 30 30 29 28 28 27 27 27 27 27 28 28
27 27 28 28 28 28 28 28 28 29 29 29 29 29 29 30 30 30 30 30 29 29 29 29 28 28 27 27 27 26 26 26 26 26 26 27 27 27 27 28 28 28 28 28 28 28 28 28 28 28 28 27 27 28 28 28 29 29 29 28 28 28 28 28 28 28 29 29 29 29 29 29 29 29 29 29 29 29 28 27 26 26 27 27 28 28
Wind_Direction
293 294 294 295 295 295 294 293 292 291 291 289 288 288 289 291 294 297 299 301 303 304 304 305 306 307 310 312 315 317 319 321 322 322 322 322 320 318 317 314 312 311 309 307 305 304 302 301 301 300 300 299 299 298 297 296 295 293 291 289 286 283 281 278 276 274 273 272 272 272 272 273 273 274 275 275 276 276 276 276 276 276 275 274 273 272
292 292 293 294 294 293 293 292 291 290 289 288 287 288 289 293 297 300 301 302 303 304 304 305 306 307 309 311 313 315 316 317 318 318 317 317 315 314 312 311 309 307 305 303 302 300 299 298 297 296 296 296 296 295 294 293 292 290 288 286 284 282 280 278 276 275 274 273 273 273 273 273 274 274 274 275 275 275 275 275 275 275 275 274 273 272
290 291 292 293 293 292 292 290 289 288 287 286 287 288 291 294 298 300 302 302 302 303 303 303 304 305 307 308 310 311 312 313 313 313 312 312 310 309 308 306 305 303 302 300 299 298 297 296 295 294 293 293 292 292 292 291 289 288 286 284 283 282 280 279 278 277 277 276 276 275 275 274 274 273 273 273 273 273 273 273 273 273 273 273 272 272
290 290 291 292 291 291 290 288 287 285 284 285 287 290 293 296 298 299 300 300 299 299 300 301 301 302 303 305 306 307 307 308 308 307 307 306 305 304 303 303 302 301 300 299 299 298 298 297 296 295 293 292 291 291 290 289 288 287 286 284 283 282 282 281 280 280 279 279 278 277 276 275 274 273 273 272 272 272 271 272 272 272 272 272 271 271
289 290 290 290 289 288 287 285 284 283 283 285 288 292 295 296 297 298 298 297 297 297 298 298 299 300 301 302 303 304 304 304 304 304 303 302 302 301 301 301 300 300 300 300 300 300 299 299 298 297 296 294 293 292 291 290 289 287 286 285 284 283 282 282 281 280 280 279 278 278 277 276 275 275 274 274 273 273 272 272 272 272 271 271 271 270
288 288 288 288 287 285 284 281 280 280 282 285 289 293 294 296 296 296 295 295 296 296 296 297 298 299 300 301 302 302 303 303 303 302 302 302 301 301 301 301 301 301 301 300 301 301 300 300 300 299 298 297 296 295 294 292 291 290 288 287 286 284 283 282 281 280 280 279 279 278 278 277 277 277 277 276 276 275 274 274 273 272 272 271 270 269
286 286 286 285 283 281 279 278 278 279 283 287 291 293 294 295 294 294 294 294 295 295 296 297 298 299 301 302 303 304 304 305 305 305 305 305 304 304 304 304 304 303 303 303 302 302 301 301 300 300 299 298 298 297 295 294 293 292 291 289 288 287 286 284 283 282 281 280 280 279 279 279 279 278 278 278 278 278 277 276 274 273 272 270 269 268
284 283 282 281 279 277 276 276 278 282 286 289 292 293 294 294 294 294 295 295 296 296 297 299 300 302 303 304 305 306 307 308 309 309 309 310 310 310 309 309 309 308 308 307 306 305 305 304 303 302 301 300 299 298 297 296 295 294 293 292 291 290 289 288 286 285 284 283 282 281 281 280 280 279 279 279 279 278 278 276 275 273 271 269 267 265
281 279 278 276 275 275 276 278 282 285 289 291 293 294 294 294 295 295 296 296 297 298 299 301 303 304 306 307 308 309 311 311 312 313 313 313 314 314 314 314 314 313 313 312 311 310 309 308 307 306 304 303 301 300 298 298 297 296 296 295 294 294 292 291 290 289 288 287 286 284 284 282 282 281 280 279 278 278 276 275 274 272 270 267 264 261
276 274 273 273 274 276 280 284 287 289 292 293 294 294 295 295 295 296 296 297 299 300 301 303 305 306 308 309 310 311 312 313 314 314 314 315 315 315 315 315 315 315 315 314 314 313 313 312 311 309 307 305 303 301 300 300 299 299 299 299 298 297 295 294 293 292 291 290 289 288 286 285 284 283 281 279 277 276 274 272 271 269 266 262 259 255
271 271 272 274 277 280 284 288 291 292 293 294 294 294 295 295 295 296 297 298 300 301 302 304 306 307 308 308 309 311 312 313 313 313 313 314 314 314 314 314 314 314 314 314 313 313 313 313 312 310 308 305 303 302 302 302 302 303 303 302 301 300 298 296 295 294 293 292 291 290 289 287 286 284 281 279 276 273 270 268 265 262 259 255 251 247
270 272 275 278 282 286 289 291 292 293 294 294 294 294 294 295 295 296 297 299 301 302 303 304 304 305 306 307 307 308 309 310 311 312 312 312 312 312 312 312 312 312 312 312 312 312 312 312 311 309 307 305 304 303 304 304 305 305 305 304 303 301 300 298 297 296 295 294 293 291 290 288 286 283 280 277 273 269 265 261 258 254 250 247 244 241
273 276 280 283 286 289 291 293 293 294 294 294 294 295 295 295 296 297 298 299 300 301 301 302 303 303 304 304 305 306 307 308 308 309 310 310 310 310 310 310 310 310 310 310 310 310 310 310 309 307 305 304 304 304 304 305 305 306 305 305 303 302 300 299 298 297 296 295 294 292 290 288 285 281 277 273 268 262 258 253 249 246 243 241 240 239
278 282 284 287 289 290 292 292 293 294 294 294 295 295 296 296 296 297 298 298 299 299 299 300 300 301 302 302 303 304 305 306 307 307 308 308 308 307 307 308 308 308 308 308 309 309 309 308 307 305 304 303 303 304 304 304 305 305 304 303 302 301 300 298 297 296 296 295 293 291 289 286 282 278 272 266 260 254 249 245 242 240 239 239 239 240
283 285 287 288 290 291 291 292 293 293 294 294 294 295 295 295 295 296 296 296 297 297 297 298 298 299 300 301 302 303 304 305 306 306 306 306 306 305 305 306 306 307 307 307 308 307 307 307 306 304 303 303 303 303 304 304 304 303 303 302 301 299 298 297 296 295 294 293 291 289 286 282 277 272 265 259 252 246 242 240 239 238 239 240 242 243
285 287 288 289 290 290 291 292 292 293 293 293 294 294 294 294 294 294 294 294 294 294 295 297 297 298 299 300 301 302 303 304 305 305 305 305 304 304 304 305 306 307 307 307 307 307 306 306 305 304 303 303 303 303 303 303 302 302 301 300 299 298 297 296 295 293 292 291 288 285 281 277 271 264 258 251 246 242 240 239 240 241 242 244 246 247
287 288 289 289 290 291 291 292 292 293 293 293 293 293 293 292 292 292 292 292 293 294 295 296 297 297 298 300 301 302 302 304 305 305 305 304 304 304 304 305 306 307 307 307 306 306 306 305 304 304 303 303 302 302 302 302 301 300 299 298 297 296 295 294 293 291 290 287 284 281 275 270 263 257 252 247 244 242 242 242 244 245 247 248 250 251
288 289 290 291 291 292 292 292 292 292 292 292 292 291 291 291 291 291 291 292 293 294 295 296 297 297 298 299 300 301 302 304 305 305 305 304 304 304 304 305 306 307 306 306 305 305 305 304 304 303 302 302 302 301 301 300 300 299 298 297 296 295 294 292 291 289 286 283 280 275 269 263 257 252 248 246 245 245 246 247 249 250 251 253 254 256
290 290 291 291 292 291 292 292 292 291 291 291 291 291 291 291 291 291 292 292 293 295 296 296 297 297 298 298 299 300 301 303 304 305 305 304 304 304 304 305 306 306 306 305 305 304 304 304 303 303 302 301 301 300 300 299 298 298 297 296 295 294 292 291 289 286 283 279 274 269 263 258 253 250 249 248 249 250 251 252 254 255 256 257 259 260
290 291 292 292 292 292 292 292 291 291 291 292 291 291 291 291 291 292 292 293 294 295 296 296 297 297 297 298 298 299 301 302 303 304 304 304 303 303 304 304 305 305 305 304 304 304 304 304 303 302 301 300 300 299 299 298 298 297 296 295 294 292 291 288 286 283 279 274 269 264 259 255 253 251 251 252 253 254 256 257 258 260 261 262 263 264
291 292 292 292 292 292 292 292 291 292 292 292 292 291 291 291 291 292 293 293 294 295 295 296 296 296 296 297 298 300 301 302 303 304 304 304 303 303 303 304 304 304 304 304 304 304 304 304 303 302 301 300 299 299 298 298 297 296 296 294 293 291 289 286 283 279 275 270 265 261 258 255 254 254 255 256 257 259 260 262 263 264 265 266 266 267
292 292 292 292 292 292 292 291 291 291 291 292 292 291 291 291 292 292 293 294 295 295 295 296 296 296 297 298 299 301 302 303 303 303 304 303 303 302 303 303 303 304 304 303 304 304 304 304 303 302 301 300 299 299 298 297 297 296 295 294 292 289 287 283 280 276 271 267 263 260 258 257 257 258 259 260 262 263 264 265 266 267 268 268 269 270
292 292 291 291 291 291 291 291 291 291 291 291 291 291 292 292 292 293 294 294 295 295 295 296 296 297 298 299 300 301 302 303 303 303 303 303 303 302 302 302 303 303 303 303 303 304 304 304 303 302 301 300 299 299 298 297 296 295 294 292 290 288 284 281 277 273 269 266 263 261 260 260 261 261 263 264 265 266 267 268 269 270 270 271 271 272
291 291 290 290 290 290 290 290 290 290 291 291 291 291 291 292 293 293 294 294 294 295 295 296 297 298 299 300 301 302 302 303 303 304 304 303 303 302 301 302 302 302 303 303 303 304 304 303 303 302 301 300 299 299 298 297 296 294 293 291 289 286 282 279 275 271 268 265 264 263 262 263 263 264 265 266 267 268 269 270 271 271 272 272 273 273
290 290 290 289 289 289 289 290 290 290 290 291 291 291 291 292 292 293 293 293 294 295 295 296 297 298 300 301 302 303 303 304 304 304 304 303 303 302 301 301 302 302 302 303 303 304 304 304 303 302 301 300 300 299 298 296 295 293 292 289 287 284 281 277 274 271 268 266 265 265 265 265 266 267 268 268 269 270 271 271 272 273 273 274 274 274
289 289 289 289 289 289 289 289 290 290 290 291 291 292 292 293 293 294 294 294 295 296 297 298 300 301 302 303 304 304 304 304 304 304 304 303 303 302 301 302 302 302 303 303 304 304 304 304 303 302 301 300 299 298 297 296 294 292 290 288 286 283 280 276 274 271 269 268 267 267 267 267 268 269 269 270 271 272 272 273 273 274 274 275 275 275
288 288 288 288 289 289 289 289 290 290 291 292 293 293 294 295 295 296 296 297 298 299 300 301 302 303 304 305 305 304 304 305 305 304 304 304 303 303 302 302 302 303 303 303 304 304 304 304 303 302 301 300 299 298 296 295 293 291 289 287 285 282 279 276 274 272 270 269 269 269 269 269 270 271 271 272 273 273 274 274 275 275 275 275 275 275
287 287 288 288 288 289 289 290 290 291 292 292 293 294 295 296 296 297 298 299 300 301 302 303 304 304 304 305 304 304 304 305 304 304 304 304 304 303 302 302 303 303 303 304 304 305 305 304 304 302 301 300 298 297 295 294 292 290 288 286 284 281 279 277 275 273 272 271 271 271 271 271 272 273 273 274 275 275 276 276 276 277 276 276 276 276
285 286 286 287 287 288 289 289 290 290 291 292 293 293 294 295 295 296 297 299 300 301 302 303 303 304 304 304 304 304 304 304 304 303 304 304 304 303 303 303 303 303 304 304 305 305 305 305 304 303 301 300 298 296 295 293 291 289 287 285 283 281 279 278 276 275 274 273 273 273 273 274 274 275 275 276 277 277 277 278 278 278 278 278 277 277
285 285 285 286 286 287 288 288 289 290 290 291 291 292 293 294 295 296 297 299 300 302 302 303 303 303 303 303 303 303 303 303 303 303 303 304 304 303 303 303 303 303 304 304 305 305 305 305 304 303 301 300 298 296 295 293 291 289 287 285 283 282 280 279 277 277 276 276 275 276 276 276 277 277 278 278 279 279 279 280 280 279 279 279 278 278
285 285 285 286 286 287 287 288 289 289 290 291 291 292 293 295 296 297 299 300 301 302 302 303 302 302 302 302 301 301 302 302 302 302 302 303 303 303 303 303 303 303 303 304 304 304 304 304 303 302 301 300 298 296 295 293 291 290 288 286 284 283 281 280 279 278 278 278 278 278 278 279 279 279 280 280 281 281 281 281 281 281 281 280 280 279
285 285 285 286 286 287 288 289 289 290 291 292 293 294 295 297 298 299 301 301 302 303 303 303 302 302 301 301 300 300 300 300 300 301 301 302 302 302 302 303 303 303 304 304 304 304 303 302 301 301 300 299 298 296 295 293 292 290 289 287 286 284 283 282 281 280 280 280 280 280 280 281 281 282 282 282 283 283 283 283 283 283 282 282 281 280
284 285 285 286 286 287 288 289 290 291 292 293 294 296 297 299 300 301 302 303 303 303 303 302 302 301 301 300 300 300 300 299 299 300 300 301 302 302 302 303 303 303 304 304 305 304 304 302 301 300 299 299 298 296 295 294 292 291 290 288 287 286 285 284 283 283 283 283 283 283 283 284 284 284 285 285 285 285 285 285 285 285 284 283 283 282
283 283 284 285 285 286 287 289 290 291 292 293 295 297 298 300 301 302 303 303 303 303 302 302 301 301 300 300 300 300 299 299 299 299 300 301 301 302 302 302 303 303 304 304 304 304 304 303 301 299 298 297 297 296 295 294 294 293 292 290 290 289 288 288 287 287 287 287 287 287 288 288 288 288 288 288 288 288 288 287 287 287 286 286 285 284
282 283 283 284 285 286 287 288 289 291 292 294 296 298 299 301 302 302 303 303 303 303 302 302 301 301 300 300 299 299 299 299 299 300 300 301 301 302 302 302 303 303 304 304 304 304 303 302 300 299 297 296 295 295 295 294 294 294 293 293 292 292 291 291 291 291 291 291 291 291 291 291 291 290 290 290 290 290 289 289 288 288 287 287 286 286
283 283 284 284 285 286 287 288 290 291 293 295 297 298 300 301 302 302 303 303 302 302 302 302 301 301 300 300 300 299 299 299 299 299 300 300 301 301 302 302 303 303 304 304 304 304 303 302 300 298 296 295 293 293 293 293 293 293 293 293 293 293 292 292 292 292 292 292 292 292 292 292 292 291 291 291 291 290 290 289 289 288 288 287 287 287
285 285 285 285 286 287 288 289 290 292 294 295 297 299 300 301 302 302 302 302 302 302 302 302 301 301 301 301 300 300 299 299 300 300 300 301 301 302 302 302 303 303 304 304 304 304 303 302 301 299 297 294 292 291 290 290 290 290 290 290 291 291 291 292 292 292 292 292 292 292 292 292 291 291 291 291 290 290 289 289 288 288 287 287 287 287
286 286 286 286 287 287 288 289 290 292 294 295 297 299 300 301 301 301 302 302 302 302 302 302 301 301 301 301 300 300 300 300 300 300 301 301 301 302 302 302 303 303 304 304 304 303 303 301 299 298 296 294 292 290 289 288 288 287 287 288 288 288 289 289 290 290 291 291 291 291 291 291 291 290 290 290 290 289 289 288 288 287 287 287 287 287
286 286 286 286 287 287 288 289 290 292 293 295 297 298 299 300 300 301 302 302 302 302 302 302 301 301 301 300 300 300 300 300 301 301 301 301 301 302 302 302 303 303 304 304 304 304 303 301 299 297 295 293 291 290 288 287 286 286 285 286 286 287 287 288 288 288 289 289 289 289 289 289 289 290 290 289 289 289 288 288 287 287 287 287 287 287
287 286 286 286 287 287 288 289 290 291 293 295 296 297 298 299 300 301 301 302 303 302 302 302 301 301 301 300 300 300 300 300 301 301 301 302 302 302 302 302 303 303 304 304 304 303 302 301 300 298 296 293 291 289 288 287 286 285 285 285 285 286 286 287 287 287 287 288 288 288 288 289 289 289 289 289 289 289 288 288 288 287 287 287 287 287
286 286 286 286 287 287 288 289 290 291 293 294 296 297 298 299 300 301 301 302 303 303 302 302 301 301 301 300 300 300 300 300 300 301 301 302 302 302 302 303 303 303 303 303 303 303 302 301 300 298 296 294 292 290 289 287 286 286 285 285 285 285 286 286 286 287 287 287 287 288 288 288 288 289 289 289 289 289 288 288 288 288 288 288 288 288
287 286 286 286 287 287 288 290 291 292 293 295 296 298 298 299 300 301 301 302 302 302 302 301 301 300 300 300 300 300 300 300 300 300 301 301 301 302 302 302 302 302 303 303 303 302 302 301 299 298 296 294 293 292 290 289 288 287 287 286 286 286 286 286 287 287 287 287 287 287 287 288 288 288 288 288 288 288 288 288 288 288 288 288 287 287
288 287 287 287 288 288 289 291 292 293 294 296 297 298 299 299 300 301 301 302 302 301 301 300 300 300 300 299 299 299 299 299 299 300 300 300 301 301 301 301 301 301 302 302 301 301 301 301 299 298 297 295 294 293 292 290 289 288 288 288 287 287 287 287 287 287 287 287 287 287 287 287 287 288 288 288 288 288 288 288 287 287 287 287 287 287
289 288 288 289 289 290 291 292 293 294 295 296 298 298 299 300 300 301 301 301 301 301 300 300 299 299 299 299 298 298 298 298 298 299 299 299 299 300 300 300 300 300 300 300 300 300 300 300 299 298 297 296 295 293 292 291 290 289 288 288 288 288 288 288 288 288 288 288 288 287 287 287 287 287 288 288 288 288 287 287 287 287 286 286 286 286
290 290 290 290 290 291 292 293 293 294 296 297 298 298 299 300 300 300 300 300 300 300 299 299 299 299 298 298 297 297 297 297 297 298 298 298 298 298 298 298 299 299 299 299 299 299 299 298 298 297 297 296 295 294 293 292 290 289 289 289 289 289 289 288 288 288 288 288 287 287 287 287 287 288 288 288 288 288 287 287 287 286 286 286 285 285
291 291 291 291 291 292 292 293 293 294 295 296 297 298 298 299 299 300 300 300 300 299 299 299 298 298 297 296 296 296 297 297 297 297 297 297 297 297 297 297 297 297 297 298 298 298 298 298 298 297 297 296 295 294 293 292 291 290 290 290 289 289 289 289 288 288 288 288 288 287 287 287 288 288 289 289 288 288 288 288 287 287 286 286 286 285
292 292 292 292 292 292 292 293 293 294 295 296 296 297 298 298 299 299 299 299 299 298 298 298 298 297 296 296 295 295 295 296 296 296 296 296 296 296 296 296 296 296 296 297 297 297 298 298 298 298 297 296 296 295 294 293 292 292 291 290 290 289 289 289 289 289 288 288 288 288 288 288 289 289 289 289 289 289 289 288 288 288 287 287 286 286
293 293 293 292 292 292 293 293 293 294 294 295 296 296 297 297 298 298 298 298 298 298 297 297 297 296 295 295 295 295 295 295 295 296 296 296 296 297 297 296 296 296 296 297 297 297 297 297 297 297 297 297 296 296 295 294 293 293 292 292 291 290 290 289 289 289 289 289 289 289 289 289 290 290 290 290 289 289 289 289 288 288 288 287 287 287
294 294 294 293 293 293 293 293 293 294 294 295 295 296 296 297 297 297 297 297 297 297 296 296 295 295 294 294 294 294 294 294 295 295 295 296 296 297 297 297 297 297 297 297 297 298 298 298 298 298 298 298 297 296 296 295 295 295 294 294 293 292 291 291 290 290 290 290 289 289 290 290 290 290 290 290 290 289 289 289 289 288 288 288 287 287
295 295 294 294 294 294 294 293 294 294 294 295 295 296 296 297 297 297 297 297 296 296 295 294 294 293 293 292 292 292 293 293 294 294 294 295 296 296 297 298 298 299 299 299 299 300 300 300 300 300 300 300 299 298 298 298 298 297 297 296 295 294 293 292 291 291 290 290 290 290 290 290 290 290 290 290 290 290 289 289 289 289 288 288 287 287
296 295 295 295 295 294 294 294 294 294 295 295 295 296 296 297 297 297 297 296 296 295 294 293 292 292 291 291 291 291 291 292 292 293 293 294 294 295 296 297 298 299 299 300 301 301 302 302 303 303 303 303 302 301 300 300 299 299 298 297 296 295 294 293 292 291 290 290 290 290 290 290 290 290 291 291 290 290 290 289 289 289 288 288 287 287
Height
3090 3090 3090 3089 3088 3088 3087 3087 3086 3085 3085 3085 3084 3084 3083 3082 3082 3081 3081 3081 3080 3080 3079 3078 3078 3077 3077 3076 3075 3074 3073 3073 3072 3071 3071 3070 3070 3069 3069 3068 3068 3067 3067 3066 3066 3065 3065 3064 3064 3063 3062 3062 3061 3061 3060 3060 3059 3059 3059 3058 3058 3058 3057 3057 3057 3057 3057 3057 3057 3057 3057 3057 3057 3057 3057 3057 3057 3057 3057 3057 3057 3057 3057 3057 3057 3057
3088 3088 3088 3087 3087 3086 3085 3085 3084 3084 3083 3083 3082 3082 3082 3081 3080 3080 3079 3079 3078 3078 3077 3077 3076 3076 3075 3074 3073 3073 3072 3072 3071 3070 3070 3069 3068 3068 3068 3067 3067 3066 3066 3065 3065 3064 3064 3063 3063 3062 3062 3061 3060 3060 3059 3059 3059 3058 3058 3057 3057 3057 3057 3056 3056 3056 3056 3056 3056 3056 3056 3056 3056 3056 3055 3055 3055 3055 3055 3055 3055 3055 3055 3055 3055 3055
3087 3086 3086 3085 3085 3084 3083 3083 3082 3082 3082 3081 3081 3080 3080 3079 3079 3078 3078 3077 3077 3077 3076 3076 3075 3074 3074 3073 3072 3072 3071 3070 3070 3069 3069 3068 3067 3067 3067 3066 3066 3065 3065 3064 3064 3063 3063 3062 3062 3061 3060 3060 3059 3059 3058 3058 3057 3057 3057 3056 3056 3056 3055 3055 3055 3054 3054 3054 3054 3054 3054 3054 3054 3054 3054 3053 3053 3053 3053 3053 3053 3053 3053 3052 3052 3052
3085 3084 3084 3083 3083 3082 3082 3082 3081 3081 3080 3080 3079 3079 3078 3078 3077 3077 3077 3076 3076 3076 3075 3075 3074 3073 3072 3072 3071 3071 3070 3069 3069 3068 3068 3067 3067 3066 3065 3065 3064 3064 3063 3063 3062 3062 3061 3061 3060 3059 3059 3058 3058 3057 3057 3056 3056 3056 3055 3055 3054 3054 3053 3053 3053 3053 3052 3052 3052 3052 3052 3052 3052 3052 3052 3052 3051 3051 3051 3051 3051 3051 3051 3050 3050 3050
3082 3082 3082 3082 3081 3081 3080 3080 3079 3079 3079 3078 3078 3077 3077 3076 3076 3076 3075 3075 3075 3074 3074 3073 3072 3072 3071 3071 3070 3069 3069 3068 3068 3067 3067 3066 3065 3065 3064 3064 3063 3062 3062 3061 3060 3060 3059 3058 3058 3057 3057 3057 3056 3056 3055 3054 3054 3053 3053 3052 3052 3052 3052 3051 3051 3051 3051 3051 3050 3050 3050 3050 3050 3049 3049 3049 3049 3049 3048 3048 3048 3048 3048 3048 3048 3048
3081 3080 3080 3080 3079 3079 3079 3078 3078 3078 3077 3077 3076 3076 3076 3075 3075 3075 3074 3074 3073 3073 3072 3072 3071 3071 3070 3069 3069 3068 3067 3067 3067 3066 3065 3065 3064 3063 3063 3062 3062 3061 3060 3059 3059 3058 3057 3057 3056 3055 3055 3054 3054 3053 3053 3052 3052 3051 3051 3050 3050 3050 3049 3049 3049 3049 3049 3048 3048 3048 3048 3047 3047 3047 3047 3046 3046 3046 3046 3046 3046 3046 3046 3045 3045 3045
3079 3078 3078 3078 3078 3077 3077 3077 3077 3076 3076 3076 3075 3075 3074 3074 3074 3073 3073 3072 3072 3072 3071 3070 3070 3069 3068 3068 3067 3067 3066 3065 3065 3064 3064 3063 3062 3062 3061 3060 3060 3059 3058 3058 3057 3056 3056 3055 3054 3053 3053 3052 3052 3051 3051 3050 3049 3049 3048 3048 3047 3047 3047 3047 3047 3046 3046 3046 3046 3045 3045 3045 3044 3044 3044 3043 3043 3043 3043 3042 3042 3042 3043 3043 3043 3043
3077 3077 3077 3076 3076 3076 3076 3076 3075 3075 3075 3074 3074 3073 3073 3072 3072 3072 3071 3071 3070 3070 3069 3069 3068 3067 3067 3066 3066 3065 3064 3064 3063 3062 3062 3061 3060 3060 3059 3058 3058 3057 3057 3056 3055 3054 3054 3053 3052 3052 3051 3050 3050 3049 3048 3048 3047 3047 3046 3046 3045 3045 3045 3044 3044 3044 3043 3043 3043 3042 3042 3042 3042 3041 3041 3041 3040 3040 3040 3040 3040 3040 3040 3040 3040 3040
3076 3075 3075 3075 3075 3074 3074 3074 3074 3073 3073 3072 3072 3072 3071 3071 3071 3070 3070 3069 3068 3068 3067 3067 3066 3066 3065 3064 3064 3063 3062 3062 3061 3061 3060 3059 3058 3058 3057 3057 3056 3055 3054 3054 3053 3052 3052 3051 3051 3050 3049 3048 3047 3047 3046 3046 3045 3044 3044 3043 3043 3042 3042 3042 3042 3041 3041 3040 3040 3040 3039 3039 3039 3038 3038 3038 3037 3037 3037 3037 3037 3037 3037 3037 3038 3038
3074 3074 3074 3074 3073 3073 3073 3072 3072 3072 3071 3071 3071 3070 3070 3069 3069 3068 3068 3067 3067 3066 3066 3065 3065 3064 3063 3062 3062 3061 3061 3060 3059 3059 3058 3057 3057 3056 3055 3054 3054 3053 3052 3052 3052 3051 3050 3050 3049 3048 3047 3047 3046 3045 3044 3043 3043 3042 3042 3042 3041 3041 3040 3039 3039 3038 3038 3037 3037 3037 3036 3036 3036 3036 3035 3035 3035 3035 3035 3035 3035 3035 3035 3036 3036 3036
3073 3073 3072 3072 3072 3072 3071 3071 3071 3070 3070 3069 3069 3069 3068 3068 3067 3067 3066 3066 3065 3065 3064 3063 3063 3062 3062 3061 3060 3060 3059 3058 3058 3057 3056 3056 3055 3054 3053 3053 3052 3052 3051 3050 3050 3049 3049 3048 3047 3047 3046 3045 3044 3043 3042 3042 3041 3041 3040 3040 3039 3038 3038 3037 3037 3036 3035 3035 3034 3034 3034 3033 3033 3033 3033 3033 3033 3033 3033 3033 3033 3033 3034 3034 3034 3035
3072 3072 3071 3071 3071 3070 3070 3069 3069 3069 3068 3068 3067 3067 3067 3066 3066 3065 3065 3064 3064 3063 3062 3062 3061 3061 3060 3059 3059 3058 3057 3057 3056 3056 3055 3054 3053 3052 3052 3051 3051 3050 3049 3049 3048 3048 3047 3047 3046 3045 3044 3043 3042 3042 3041 3040 3039 3039 3038 3038 3037 3036 3036 3035 3034 3033 3033 3032 3032 3032 3032 3031 3031 3031 3031 3031 3031 3031 3031 3031 3032 3032 3032 3033 3033 3034
3071 3070 3070 3069 3069 3068 3068 3068 3067 3067 3067 3066 3066 3065 3065 3065 3064 3064 3063 3062 3062 3062 3061 3060 3060 3059 3058 3058 3057 3057 3056 3056 3055 3054 3053 3052 3052 3051 3050 3050 3049 3048 3048 3047 3047 3046 3046 3045 3044 3043 3042 3042 3041 3040 3039 3038 3037 3037 3036 3036 3035 3034 3033 3033 3032 3032 3031 3030 3030 3030 3029 3029 3029 3029 3029 3029 3029 3029 3029 3030 3030 3031 3031 3032 3032 3032
3069 3069 3068 3068 3067 3067 3067 3066 3066 3065 3065 3065 3064 3064 3063 3063 3062 3062 3062 3061 3061 3060 3059 3059 3058 3057 3057 3056 3056 3055 3055 3054 3054 3053 3052 3051 3050 3049 3048 3048 3047 3047 3046 3046 3045 3045 3044 3043 3042 3042 3041 3040 3039 3038 3037 3037 3036 3035 3034 3034 3033 3032 3032 3031 3030 3030 3029 3028 3028 3028 3027 3027 3027 3027 3027 3027 3027 3028 3028 3029 3029 3030 3030 3030 3031 3031
3068 3067 3067 3067 3066 3066 3065 3065 3064 3064 3064 3063 3063 3062 3062 3062 3061 3061 3060 3059 3059 3058 3058 3057 3057 3056 3056 3055 3054 3054 3053 3053 3052 3052 3051 3050 3048 3047 3047 3047 3046 3045 3045 3044 3044 3043 3042 3042 3041 3040 3039 3038 3037 3036 3035 3035 3034 3033 3032 3032 3031 3030 3030 3029 3028 3028 3027 3027 3026 3026 3026 3026 3026 3026 3026 3026 3026 3027 3027 3027 3028 3028 3029 3029 3030 3030
3067 3066 3066 3065 3065 3064 3064 3063 3063 3062 3062 3062 3061 3061 3060 3060 3060 3059 3058 3058 3057 3057 3056 3056 3055 3055 3054 3053 3052 3052 3052 3051 3051 3050 3049 3048 3047 3046 3045 3045 3044 3044 3043 3042 3042 3041 3040 3040 3039 3038 3037 3036 3035 3034 3033 3033 3032 3031 3031 3030 3029 3028 3028 3027 3027 3026 3025 3025 3025 3024 3024 3024 3024 3024 3024 3025 3025 3026 3026 3026 3027 3027 3027 3028 3028 3028
3065 3065 3064 3064 3063 3063 3062 3062 3062 3061 3061 3060 3060 3059 3059 3058 3058 3057 3057 3057 3056 3055 3055 3054 3053 3053 3052 3052 3051 3050 3050 3049 3049 3048 3047 3046 3045 3044 3043 3043 3042 3042 3042 3041 3040 3039 3038 3038 3037 3036 3035 3034 3033 3032 3032 3031 3030 3029 3029 3028 3027 3027 3026 3025 3025 3024 3024 3023 3023 3023 3023 3023 3023 3023 3023 3024 3024 3024 3025 3025 3025 3026 3026 3026 3027 3027
3063 3063 3062 3062 3062 3062 3061 3061 3060 3060 3059 3059 3058 3058 3057 3057 3057 3056 3055 3055 3054 3054 3053 3052 3052 3051 3051 3050 3050 3049 3048 3047 3047 3046 3045 3044 3043 3042 3041 3041 3041 3040 3040 3039 3038 3037 3037 3036 3035 3034 3033 3032 3031 3031 3030 3029 3028 3027 3027 3026 3025 3025 3024 3023 3023 3022 3022 3022 3022 3022 3022 3022 3022 3022 3022 3022 3023 3023 3023 3023 3024 3024 3024 3024 3025 3025
3062 3062 3061 3061 3060 3060 3059 3059 3058 3058 3058 3057 3057 3057 3056 3056 3055 3054 3054 3053 3052 3052 3052 3051 3050 3050 3049 3049 3048 3047 3046 3046 3045 3044 3044 3042 3042 3041 3040 3039 3039 3038 3038 3037 3036 3036 3035 3034 3033 3032 3031 3030 3029 3029 3028 3027 3026 3026 3025 3024 3023 3023 3022 3022 3021 3021 3021 3020 3020 3020 3020 3020 3021 3021 3021 3021 3021 3022 3022 3022 3022 3022 3022 3023 3023 3023
3060 3060 3059 3059 3059 3058 3058 3057 3057 3057 3056 3056 3056 3055 3054 3054 3053 3053 3052 3052 3051 3050 3050 3049 3049 3048 3047 3047 3046 3046 3045 3044 3043 3043 3042 3041 3040 3039 3038 3037 3037 3037 3036 3035 3034 3034 3033 3032 3032 3031 3029 3028 3027 3027 3026 3025 3024 3024 3023 3022 3022 3021 3020 3020 3020 3019 3019 3019 3019 3019 3019 3019 3019 3019 3020 3020 3020 3020 3020 3020 3020 3021 3021 3021 3021 3021
3059 3058 3058 3057 3057 3057 3056 3056 3056 3055 3055 3054 3054 3053 3053 3052 3052 3051 3050 3050 3049 3048 3048 3047 3047 3046 3046 3045 3044 3044 3043 3042 3042 3041 3040 3039 3038 3037 3036 3035 3035 3034 3034 3033 3032 3032 3031 3030 3030 3028 3027 3026 3026 3025 3024 3023 3022 3022 3021 3020 3020 3019 3019 3018 3018 3018 3018 3017 3017 3017 3018 3018 3018 3018 3018 3018 3018 3018 3018 3018 3019 3019 3019 3019 3019 3019
3057 3057 3057 3056 3056 3055 3055 3054 3054 3054 3053 3053 3052 3052 3051 3051 3050 3049 3049 3048 3047 3047 3046 3046 3045 3044 3044 3043 3043 3042 3041 3041 3040 3039 3038 3038 3037 3035 3034 3033 3033 3032 3032 3031 3030 3030 3029 3028 3027 3027 3025 3024 3023 3022 3022 3021 3020 3020 3019 3018 3018 3017 3017 3017 3017 3016 3016 3016 3016 3016 3016 3016 3016 3016 3016 3017 3017 3017 3017 3017 3017 3017 3017 3017 3017 3017
3056 3056 3055 3055 3054 3054 3053 3053 3052 3052 3052 3051 3051 3050 3050 3049 3048 3047 3047 3047 3046 3045 3045 3044 3043 3042 3042 3041 3041 3040 3039 3039 3038 3037 3037 3036 3035 3033 3032 3032 3031 3030 3030 3029 3028 3027 3027 3026 3026 3024 3023 3022 3022 3021 3020 3019 3018 3018 3017 3017 3016 3016 3015 3015 3015 3015 3015 3015 3015 3015 3015 3015 3015 3015 3015 3015 3015 3015 3015 3015 3015 3015 3015 3016 3016 3016
3054 3054 3053 3053 3052 3052 3052 3051 3051 3050 3050 3050 3049 3048 3048 3047 3047 3046 3046 3045 3044 3044 3043 3042 3042 3041 3040 3039 3039 3038 3037 3037 3036 3036 3035 3034 3033 3032 3031 3030 3029 3028 3027 3027 3026 3026 3025 3024 3023 3022 3021 3020 3019 3018 3018 3017 3016 3016 3015 3015 3014 3014 3013 3013 3013 3013 3013 3013 3013 3013 3013 3013 3013 3013 3013 3013 3013 3013 3013 3013 3013 3013 3013 3014 3014 3014
3052 3052 3052 3051 3051 3050 3050 3050 3049 3049 3048 3048 3047 3047 3046 3045 3045 3044 3044 3043 3043 3042 3041 3041 3040 3039 3038 3037 3037 3036 3035 3035 3034 3033 3033 3032 3031 3030 3029 3028 3027 3026 3026 3025 3024 3023 3023 3022 3021 3020 3019 3018 3017 3017 3016 3015 3014 3014 3013 3013 3012 3012 3012 3012 3012 3012 3011 3011 3011 3011 3011 3011 3011 3011 3011 3011 3012 3012 3012 3012 3012 3012 3012 3012 3012 3012
3051 3050 3050 3049 3049 3049 3048 3048 3047 3047 3047 3046 3045 3045 3044 3043 3043 3042 3042 3041 3041 3040 3039 3038 3037 3037 3036 3035 3034 3034 3033 3033 3032 3032 3031 3030 3029 3028 3027 3026 3025 3024 3023 3023 3022 3021 3021 3020 3019 3018 3017 3016 3015 3014 3014 3013 3012 3012 3011 3011 3010 3010 3010 3010 3010 3010 3009 3009 3009 3009 3009 3009 3009 3009 3009 3009 3009 3010 3010 3010 3009 3009 3009 3009 3009 3010
3049 3048 3048 3048 3047 3047 3047 3046 3046 3045 3045 3044 3043 3043 3042 3042 3041 3040 3039 3039 3038 3038 3037 3036 3035 3034 3033 3032 3032 3031 3031 3031 3030 3029 3029 3028 3027 3027 3025 3024 3023 3022 3022 3021 3020 3019 3019 3018 3017 3016 3015 3014 3013 3012 3012 3011 3010 3010 3009 3009 3008 3008 3008 3008 3008 3008 3007 3007 3007 3007 3007 3007 3007 3007 3007 3007 3007 3007 3007 3007 3007 3007 3007 3007 3007 3007
3047 3047 3047 3046 3046 3045 3045 3044 3044 3043 3043 3042 3042 3041 3040 3040 3039 3038 3037 3037 3036 3036 3035 3034 3033 3032 3032 3031 3030 3029 3028 3028 3028 3027 3027 3026 3025 3024 3023 3022 3022 3021 3020 3019 3018 3017 3017 3016 3015 3014 3013 3012 3012 3011 3010 3009 3008 3008 3007 3007 3007 3006 3006 3006 3006 3006 3005 3005 3005 3005 3005 3005 3005 3005 3005 3005 3005 3005 3005 3005 3005 3005 3005 3005 3005 3005
3046 3045 3045 3044 3044 3043 3043 3042 3042 3042 3041 3041 3040 3040 3039 3038 3037 3037 3036 3035 3035 3034 3033 3032 3032 3031 3030 3029 3028 3027 3027 3026 3025 3025 3024 3024 3023 3022 3021 3020 3019 3019 3018 3017 3016 3015 3014 3013 3012 3012 3011 3010 3009 3008 3008 3007 3006 3006 3005 3005 3005 3004 3004 3004 3004 3003 3003 3003 3003 3003 3003 3003 3003 3003 3003 3003 3003 3003 3002 3002 3002 3002 3002 3002 3002 3002
3044 3044 3043 3043 3042 3042 3041 3041 3041 3040 3040 3039 3039 3038 3037 3037 3036 3036 3035 3034 3033 3032 3031 3031 3030 3029 3028 3027 3027 3026 3025 3024 3023 3022 3022 3022 3021 3020 3019 3018 3017 3017 3016 3015 3014 3013 3012 3012 3010 3009 3008 3008 3007 3006 3006 3005 3004 3004 3003 3003 3003 3002 3002 3002 3002 3002 3001 3001 3001 3001 3001 3001 3001 3001 3001 3001 3000 3000 3000 3000 2999 2999 2999 2999 2999 2998
3042 3042 3042 3041 3041 3040 3040 3039 3039 3038 3038 3037 3037 3036 3036 3035 3034 3034 3033 3032 3031 3030 3030 3029 3028 3027 3027 3026 3025 3024 3023 3022 3021 3021 3020 3019 3019 3018 3017 3017 3016 3015 3014 3013 3012 3012 3011 3010 3008 3007 3006 3005 3005 3004 3003 3003 3002 3002 3002 3001 3001 3000 3000 3000 3000 2999 2999 2999 2999 2999 2999 2998 2998 2998 2998 2998 2998 2997 2997 2997 2997 2996 2996 2996 2995 2995
3041 3040 3040 3039 3039 3038 3037 3037 3037 3036 3036 3035 3035 3034 3034 3033 3032 3032 3031 3030 3029 3028 3028 3027 3026 3025 3025 3024 3023 3022 3022 3021 3020 3019 3018 3017 3017 3016 3016 3015 3014 3013 3012 3011 3011 3010 3009 3008 3007 3005 3004 3003 3002 3002 3001 3001 3000 3000 2999 2999 2999 2998 2998 2997 2997 2997 2997 2997 2997 2996 2996 2996 2996 2996 2995 2995 2995 2995 2994 2994 2993 2993 2992 2992 2992 2992
3039 3038 3038 3037 3037 3036 3036 3035 3035 3034 3034 3033 3033 3032 3032 3031 3030 3030 3029 3028 3027 3027 3026 3025 3024 3023 3023 3022 3021 3021 3020 3019 3018 3017 3016 3016 3015 3014 3013 3013 3012 3011 3010 3009 3008 3008 3007 3006 3005 3004 3002 3002 3001 3000 2999 2998 2998 2997 2997 2997 2996 2996 2996 2995 2995 2995 2994 2994 2994 2993 2993 2993 2993 2992 2992 2992 2992 2992 2991 2991 2990 2990 2989 2989 2988 2988
3037 3037 3037 3036 3035 3035 3034 3034 3033 3033 3032 3032 3031 3030 3030 3029 3028 3027 3027 3026 3025 3025 3024 3023 3022 3022 3021 3020 3019 3018 3018 3017 3016 3015 3014 3014 3013 3012 3012 3011 3010 3009 3008 3007 3007 3006 3005 3004 3003 3002 3001 3000 2999 2998 2997 2996 2995 2995 2995 2994 2994 2993 2993 2992 2992 2992 2991 2991 2991 2991 2990 2990 2990 2989 2989 2989 2988 2988 2988 2987 2987 2986 2986 2985 2985 2985
3036 3035 3035 3034 3034 3033 3033 3032 3032 3031 3030 3030 3029 3028 3027 3027 3026 3026 3025 3024 3023 3022 3022 3021 3020 3019 3019 3018 3017 3017 3016 3015 3014 3013 3012 3012 3011 3010 3009 3009 3008 3007 3006 3006 3005 3004 3003 3002 3002 3001 3000 2998 2997 2996 2995 2994 2993 2992 2992 2992 2991 2991 2990 2990 2989 2989 2988 2988 2988 2987 2987 2987 2987 2986 2986 2986 2985 2985 2985 2984 2984 2983 2982 2982 2982 2981
3034 3033 3033 3032 3032 3031 3031 3030 3030 3029 3028 3028 3027 3026 3025 3025 3024 3023 3023 3022 3021 3021 3020 3019 3018 3017 3016 3016 3015 3014 3014 3013 3012 3011 3011 3010 3009 3008 3007 3007 3006 3005 3004 3003 3003 3002 3001 3000 2999 2999 2998 2997 2996 2995 2994 2993 2992 2991 2990 2989 2989 2988 2988 2987 2987 2986 2986 2985 2985 2985 2984 2984 2984 2983 2983 2983 2982 2982 2982 2981 2981 2980 2979 2979 2979 2978
3032 3032 3031 3030 3030 3029 3029 3028 3028 3027 3027 3026 3025 3024 3023 3023 3022 3021 3021 3020 3019 3018 3018 3017 3016 3015 3014 3013 3012 3012 3011 3011 3010 3009 3008 3007 3007 3006 3005 3004 3003 3003 3002 3001 3001 3000 2999 2998 2997 2997 2996 2995 2995 2994 2992 2992 2991 2990 2989 2988 2987 2987 2986 2985 2984 2984 2983 2983 2982 2982 2982 2981 2981 2981 2980 2980 2980 2979 2979 2978 2978 2977 2977 2976 2976 2975
3030 3029 3029 3028 3028 3027 3027 3026 3026 3025 3024 3024 3023 3022 3022 3021 3020 3019 3019 3018 3017 3017 3016 3015 3014 3013 3012 3011 3010 3009 3009 3008 3007 3007 3006 3005 3004 3004 3003 3002 3002 3001 3000 2999 2998 2998 2997 2997 2996 2995 2994 2993 2993 2992 2991 2990 2989 2988 2988 2987 2986 2985 2984 2983 2982 2982 2981 2981 2980 2979 2979 2978 2978 2978 2978 2977 2977 2977 2976 2976 2975 2974 2974 2973 2973 2972
3028 3027 3027 3026 3026 3025 3025 3024 3024 3023 3022 3022 3021 3020 3020 3019 3018 3017 3017 3016 3015 3014 3013 3012 3012 3011 3010 3009 3008 3007 3007 3006 3005 3004 3004 3003 3002 3002 3001 3000 2999 2998 2998 2997 2996 2996 2995 2994 2994 2993 2992 2992 2991 2990 2989 2989 2988 2987 2986 2985 2984 2983 2982 2982 2981 2980 2979 2979 2978 2977 2977 2976 2976 2976 2975 2975 2974 2974 2973 2973 2972 2972 2971 2971 2970 2970
3026 3026 3025 3024 3024 3023 3023 3022 3022 3021 3020 3020 3019 3018 3018 3017 3016 3015 3015 3014 3013 3012 3011 3010 3009 3008 3007 3007 3006 3005 3004 3003 3003 3002 3001 3001 3000 2999 2998 2998 2997 2997 2996 2995 2994 2993 2992 2992 2991 2991 2990 2990 2989 2988 2988 2987 2986 2985 2984 2983 2982 2982 2981 2980 2979 2978 2977 2977 2976 2975 2974 2974 2973 2973 2973 2972 2972 2971 2971 2970 2970 2969 2968 2968 2968 2967
3024 3024 3023 3022 3022 3022 3021 3020 3020 3019 3018 3018 3017 3017 3016 3015 3014 3013 3012 3012 3011 3010 3009 3008 3007 3006 3005 3004 3003 3002 3002 3001 3000 3000 2999 2998 2997 2997 2996 2996 2995 2994 2993 2993 2992 2991 2991 2990 2989 2988 2988 2987 2987 2986 2986 2985 2984 2983 2982 2981 2980 2980 2979 2978 2977 2976 2975 2974 2973 2973 2972 2972 2971 2971 2970 2970 2969 2969 2968 2967 2967 2967 2966 2966 2965 2965
3022 3022 3021 3021 3020 3019 3019 3018 3017 3017 3016 3016 3015 3015 3014 3013 3012 3012 3011 3010 3009 3008 3007 3006 3005 3004 3003 3002 3001 3000 2999 2999 2998 2997 2997 2996 2995 2995 2994 2993 2992 2992 2991 2991 2990 2989 2988 2987 2987 2986 2986 2985 2984 2984 2983 2982 2982 2981 2980 2979 2978 2977 2977 2976 2975 2974 2973 2972 2971 2970 2970 2969 2969 2968 2968 2967 2967 2966 2966 2965 2964 2964 2963 2963 2962 2962
3020 3020 3019 3019 3018 3017 3017 3016 3016 3015 3014 3014 3013 3012 3012 3011 3010 3009 3008 3007 3007 3006 3005 3004 3003 3002 3001 3000 2999 2998 2997 2997 2996 2995 2995 2994 2993 2992 2992 2991 2990 2990 2989 2988 2988 2987 2986 2986 2985 2984 2983 2982 2982 2982 2981 2980 2979 2978 2977 2977 2976 2975 2974 2974 2972 2972 2971 2969 2969 2968 2967 2967 2966 2966 2965 2965 2964 2964 2963 2963 2962 2962 2961 2960 2960 2959
3018 3018 3017 3017 3016 3015 3015 3014 3013 3013 3012 3012 3011 3010 3009 3008 3007 3007 3006 3005 3004 3003 3002 3001 3000 2999 2998 2997 2997 2996 2995 2994 2994 2993 2992 2992 2991 2990 2990 2989 2988 2987 2987 2986 2986 2985 2984 2983 2983 2982 2981 2980 2980 2979 2979 2978 2977 2976 2975 2974 2973 2973 2972 2971 2970 2969 2968 2967 2966 2965 2964 2964 2963 2963 2963 2962 2962 2962 2961 2960 2960 2959 2958 2958 2957 2957
3016 3016 3015 3015 3014 3013 3013 3012 3011 3011 3010 3009 3008 3007 3007 3006 3005 3004 3003 3002 3002 3001 3000 2999 2998 2997 2996 2995 2994 2993 2993 2992 2992 2991 2990 2990 2989 2988 2988 2987 2986 2986 2985 2984 2983 2983 2982 2982 2981 2980 2979 2978 2978 2977 2976 2976 2975 2974 2973 2972 2971 2970 2970 2969 2968 2967 2966 2965 2964 2963 2962 2961 2961 2961 2960 2960 2960 2959 2959 2958 2957 2957 2956 2956 2955 2955
3014 3014 3013 3012 3012 3011 3010 3010 3009 3008 3007 3007 3006 3005 3004 3003 3002 3002 3001 3000 2999 2998 2997 2997 2996 2995 2994 2993 2992 2991 2990 2990 2989 2988 2988 2987 2987 2986 2986 2985 2984 2983 2983 2982 2981 2981 2980 2979 2979 2978 2977 2976 2976 2975 2974 2973 2972 2971 2971 2970 2969 2968 2967 2967 2965 2964 2963 2962 2961 2960 2959 2959 2958 2958 2958 2957 2957 2957 2956 2956 2955 2954 2954 2953 2953 2952
3012 3012 3011 3010 3010 3009 3008 3007 3007 3006 3005 3004 3003 3003 3002 3001 3000 2999 2998 2997 2997 2996 2995 2994 2993 2992 2992 2991 2990 2989 2988 2987 2987 2986 2985 2985 2984 2984 2983 2983 2982 2981 2981 2980 2979 2978 2978 2977 2977 2976 2975 2974 2973 2972 2972 2971 2970 2969 2968 2967 2967 2966 2965 2964 2963 2962 2961 2960 2959 2958 2957 2956 2956 2955 2955 2954 2954 2954 2954 2953 2952 2952 2952 2951 2950 2950
3010 3009 3009 3008 3007 3007 3006 3005 3004 3003 3002 3002 3001 3000 2999 2999 2998 2997 2996 2995 2994 2993 2992 2992 2991 2990 2989 2988 2987 2987 2986 2985 2984 2983 2982 2982 2982 2981 2981 2980 2980 2979 2978 2978 2977 2976 2976 2975 2974 2974 2973 2972 2971 2970 2969 2968 2967 2966 2966 2965 2964 2963 2962 2961 2960 2959 2958 2957 2956 2955 2954 2954 2953 2952 2952 2952 2952 2951 2951 2951 2950 2949 2949 2948 2948 2947
3008 3007 3007 3006 3005 3004 3003 3002 3002 3001 3000 2999 2998 2997 2997 2996 2996 2995 2994 2993 2992 2991 2990 2989 2989 2988 2987 2986 2985 2984 2983 2982 2982 2981 2980 2979 2979 2978 2978 2977 2977 2976 2976 2975 2975 2974 2973 2973 2972 2972 2971 2970 2969 2967 2967 2966 2965 2964 2963 2962 2961 2960 2959 2958 2957 2957 2955 2954 2953 2952 2952 2951 2951 2950 2949 2949 2949 2948 2948 2948 2948 2947 2946 2946 2945 2944
3006 3005 3004 3003 3002 3002 3001 3000 2999 2998 2997 2997 2996 2995 2994 2994 2993 2992 2992 2991 2990 2989 2988 2987 2986 2985 2985 2984 2983 2982 2981 2980 2979 2979 2978 2977 2976 2975 2975 2974 2974 2973 2972 2972 2972 2971 2971 2970 2970 2969 2968 2967 2966 2965 2964 2963 2962 2961 2960 2959 2958 2957 2957 2956 2955 2954 2953 2952 2951 2950 2949 2949 2948 2947 2947 2946 2946 2946 2946 2945 2945 2945 2944 2943 2942 2942
3003 3002 3002 3001 3000 2999 2998 2997 2997 2996 2995 2994 2993 2992 2992 2991 2990 2989 2989 2988 2987 2986 2985 2984 2984 2983 2982 2981 2980 2980 2979 2978 2977 2977 2976 2975 2974 2973 2972 2972 2971 2970 2969 2969 2968 2968 2967 2967 2967 2966 2965 2964 2963 2962 2962 2960 2959 2958 2957 2956 2955 2955 2954 2953 2952 2951 2950 2949 2948 2948 2947 2946 2946 2945 2944 2943 2943 2943 2943 2943 2942 2942 2941 2940 2940 2939